Location: downtown San Diego
(32.7310°N, 117.1990°W)
Time: 17:59:34
(UTC-07:00)

COSMOS 2455 - Pass Details

Date: 19 May 2017
Orbit: 902 x 908 km, 67.1° (Epoch: 26 May)

Event Time Altitude Azimuth Distance (km) Brightness Sun altitude
Rises 20:36:52 0° 348° (NNW) 3,538 6.6 -10.6°
Reaches altitude 10° 20:40:00 10° 4° (N) 2,593 5.6 -11.2°
Maximum altitude 20:44:35 22° 54° (NE) 1,865 4.3 -12.0°
Enters shadow 20:48:15 13° 97° (E) 2,355 4.5 -12.6°
